Location: Newark
(55.7167°N, 12.5667°E)
Time: 10:43:10
(UTC+00:00)

N. Korean satellite - Pass Details

Date: 11 December 2019
Orbit: 454 x 507 km, 97.2° (Epoch: 24 January)

Event Time Altitude Azimuth Distance (km) Brightness Sun altitude
Rises 04:31:55 0° 21° (NNE) 2,566 10.4 -23.1°
Reaches altitude 10° 04:34:12 10° 33° (NNE) 1,670 9.6 -22.8°
Maximum altitude 04:37:22 29° 95° (E) 904 8.6 -22.3°
Drops below altitude 10° 04:40:28 10° 157° (SSE) 1,630 9.6 -21.9°
Sets 04:42:40 0° 169° (S) 2,492 10.4 -21.6°
